GW0824 Weather Reports


time (UTC)temp
C
wind
direction
speed
KPH
gust
KPH
rain 1hr
cm
rain 24hr
cm
rain mn
cm
humidity
%
barometer
mb
20260906203052 32 78 1.6 17.7 0.00 0.00 0.00 43 895.5
20260906201614 32 59 3.2 22.5 0.00 0.00 0.00 42 895.6
20260906200051 32 74 1.6 9.7 0.00 0.00 0.00 45 895.6
20260906194555 31 56 4.8 27.4 0.00 0.00 0.00 46 896.0
20260906193046 31 69 1.6 16.1 0.00 0.00 0.00 46 896.1
20260906191542 31 78 3.2 11.3 0.00 0.00 0.00 45 896.0
20260906190038 31 74 1.6 8.0 0.00 0.00 0.00 48 896.3
20260906184537 30 92 1.6 6.4 0.00 0.00 0.00 49 896.4
20260906183033 30 76 0.0 16.1 0.00 0.00 0.00 49 896.5
20260906181542 30 360 1.6 14.5 0.00 0.00 0.00 49 897.0
20260906180026 29 360 1.6 9.7 0.00 0.00 0.00 54 897.2
20260906174522 28 360 0.0 6.4 0.00 0.00 0.00 57 897.4
20260906173023 27 360 0.0 16.1 0.00 0.00 0.00 60 897.6
20260906171518 27 360 0.0 3.2 0.00 0.00 0.00 62 898.1
20260906170014 27 360 0.0 4.8 0.00 0.00 0.00 65 898.1
20260906164518 26 360 0.0 6.4 0.00 0.00 0.00 69 898.0
20260906163007 25 360 1.6 16.1 0.00 0.00 0.00 71 898.3
20260906161504 24 360 0.0 12.9 0.00 0.00 0.00 76 898.4
20260906160100 23 360 0.0 9.7 0.00 0.00 0.00 76 898.4
20260906154556 24 360 3.2 16.1 0.00 0.00 0.00 76 898.4
20260906153110 23 360 0.0 19.3 0.00 0.00 0.00 78 898.6
20260906151555 23 360 1.6 19.3 0.00 0.00 0.00 79 898.4
20260906150056 23 360 3.2 32.2 0.00 0.00 0.00 80 898.6
20260906144600 22 360 6.4 22.5 0.00 0.00 0.00 83 898.5
20260906143055 22 360 1.6 14.5 0.00 0.00 0.00 87 898.5
20260906141550 21 360 1.6 14.5 0.00 0.00 0.00 90 898.3
20260906140052 20 26 1.6 4.8 0.00 0.00 0.00 94 898.1
20260906134552 19 360 0.0 3.2 0.00 0.00 0.00 95 898.0
20260906133053 19 360 0.0 4.8 0.00 0.00 0.00 95 897.8
20260906131547 19 360 0.0 3.2 0.00 0.00 0.00 95 897.9
20260906130100 18 360 0.0 3.2 0.00 0.00 0.00 95 897.8
20260906124546 18 360 0.0 1.6 0.00 0.00 0.00 95 897.9
20260906123047 18 360 0.0 6.4 0.00 0.00 0.00 94 898.1
20260906121548 18 360 0.0 3.2 0.00 0.00 0.00 94 898.0
20260906120043 18 360 1.6 9.7 0.00 0.00 0.00 93 898.1
20260906114542 17 360 1.6 4.8 0.00 0.00 0.00 93 898.1
20260906113041 17 360 1.6 8.0 0.00 0.00 0.00 92 898.0
20260906111541 17 360 0.0 0.0 0.00 0.00 0.00 91 897.8
20260906110039 17 360 0.0 0.0 0.00 0.00 0.00 91 897.4
20260906104536 17 360 0.0 1.6 0.00 0.00 0.00 91 897.3
20260906103036 18 360 0.0 4.8 0.00 0.00 0.00 91 897.4
20260906101535 18 360 0.0 9.7 0.00 0.00 0.00 91 897.5
20260906100039 18 360 0.0 3.2 0.00 0.00 0.00 89 897.7
20260906094531 18 360 0.0 1.6 0.00 0.00 0.00 90 897.8
20260906093044 18 360 0.0 0.0 0.00 0.00 0.00 90 897.8
20260906091527 18 360 0.0 1.6 0.00 0.00 0.00 89 897.6
20260906090025 18 360 0.0 1.6 0.00 0.00 0.00 88 897.5
20260906084524 19 360 0.0 1.6 0.00 0.00 0.00 86 897.5
20260906083022 20 360 0.0 14.5 0.00 0.00 0.00 82 897.8
20260906081529 22 360 1.6 12.9 0.00 0.00 0.00 73 897.8
20260906080010 23 360 0.0 20.9 0.00 0.00 0.00 67 897.8
20260906074508 24 360 0.0 1.6 0.00 0.00 0.00 66 897.5
20260906073015 24 77 0.0 3.2 0.00 0.00 0.00 65 896.8
20260906071506 24 78 0.0 3.2 0.00 0.00 0.00 65 896.6
20260906070003 24 81 0.0 1.6 0.00 0.00 0.00 65 896.4
20260906064502 24 67 0.0 1.6 0.00 0.00 0.00 65 896.3
20260906063004 24 44 0.0 3.2 0.00 0.00 0.00 65 896.2
20260906061502 24 61 0.0 3.2 0.00 0.00 0.00 65 896.3
20260906060100 24 68 0.0 3.2 0.00 0.00 0.00 66 896.3
20260906054558 24 55 0.0 1.6 0.00 0.00 0.00 65 896.3
20260906053059 24 61 0.0 0.0 0.00 0.00 0.00 65 896.2
20260906051556 24 58 0.0 0.0 0.00 0.00 0.00 65 896.3
20260906050108 24 76 0.0 3.2 0.00 0.00 0.00 65 896.0
20260906044553 24 44 0.0 0.0 0.00 0.00 0.00 65 896.2
20260906043106 25 67 0.0 1.6 0.00 0.00 0.00 65 896.1
20260906041553 25 80 0.0 0.0 0.00 0.00 0.00 64 896.0
20260906040110 25 360 0.0 3.2 0.00 0.00 0.00 63 895.9
20260906034551 25 360 0.0 3.2 0.00 0.00 0.00 62 896.0
20260906033053 26 360 0.0 3.2 0.00 0.00 0.00 61 896.1
20260906031551 26 360 0.0 3.2 0.00 0.00 0.00 59 896.1
20260906030050 26 360 0.0 3.2 0.00 0.00 0.00 58 896.1
20260906024648 27 360 0.0 3.2 0.00 0.00 0.00 57 895.9
20260906023104 27 360 0.0 6.4 0.00 0.00 0.00 55 895.6
20260906021548 28 360 0.0 3.2 0.00 0.00 0.00 52 895.5
20260906020047 28 360 0.0 6.4 0.00 0.00 0.00 48 895.4
20260906014557 30 360 0.0 1.6 0.00 0.00 0.00 46 895.3
20260906013047 30 360 0.0 3.2 0.00 0.00 0.00 45 895.3
20260906011554 31 360 0.0 0.0 0.00 0.00 0.00 43 895.4
20260906010046 31 360 0.0 1.6 0.00 0.00 0.00 41 895.4
20260906004544 32 24 0.0 3.2 0.00 0.00 0.00 40 895.4
20260906003051 32 49 0.0 3.2 0.00 0.00 0.00 38 894.9
20260906001544 32 360 0.0 1.6 0.00 0.00 0.00 39 894.8
20260906000044 32 72 0.0 3.2 0.00 0.00 0.00 39 894.8
20260905234553 32 49 1.6 17.7 0.00 0.00 0.00 41 894.7
20260905233043 32 52 0.0 6.4 0.00 0.00 0.00 40 894.7
20260905231543 32 51 0.0 3.2 0.00 0.00 0.00 39 894.7
20260905230043 32 37 0.0 3.2 0.00 0.00 0.00 38 894.5
20260905224546 32 59 0.0 6.4 0.00 0.00 0.00 38 894.4
20260905223041 33 61 0.0 8.0 0.00 0.00 0.00 39 894.4
20260905221542 33 60 0.0 8.0 0.00 0.00 0.00 37 894.3
20260905220041 33 61 1.6 14.5 0.00 0.00 0.00 37 894.3
20260905214538 33 33 0.0 12.9 0.00 0.00 0.00 37 894.5
20260905213035 33 82 1.6 30.6 0.00 0.00 0.00 36 894.8
20260905211535 34 67 3.2 20.9 0.00 0.00 0.00 38 894.9
20260905210034 34 48 1.6 22.5 0.00 0.00 0.00 36 895.0
20260905204528 34 71 1.6 9.7 0.00 0.00 0.00 38 895.3